Year,Month,Day,Hour,Minute,Value (Times are PST for temperature in C)
2012,10,02,00,00,11.80
2012,10,02,00,01,11.80
2012,10,02,00,02,11.80
2012,10,02,00,03,11.80
2012,10,02,00,04,11.80
2012,10,02,00,05,11.80
2012,10,02,00,06,11.70
2012,10,02,00,07,11.70
2012,10,02,00,08,11.70
2012,10,02,00,09,11.70
2012,10,02,00,10,11.70
2012,10,02,00,11,11.70
2012,10,02,00,12,11.70
2012,10,02,00,13,11.70
2012,10,02,00,14,11.70
2012,10,02,00,15,11.60
2012,10,02,00,16,11.60
2012,10,02,00,17,11.60
2012,10,02,00,18,11.60
2012,10,02,00,19,11.60
2012,10,02,00,20,11.60
2012,10,02,00,21,11.60
2012,10,02,00,22,11.50
2012,10,02,00,23,11.50
2012,10,02,00,24,11.50
2012,10,02,00,25,11.40
2012,10,02,00,26,11.40
2012,10,02,00,27,11.30
2012,10,02,00,28,11.30
2012,10,02,00,29,11.30
2012,10,02,00,30,11.30
2012,10,02,00,31,11.20
2012,10,02,00,32,11.20
2012,10,02,00,33,11.20
2012,10,02,00,34,11.10
2012,10,02,00,35,11.10
2012,10,02,00,36,11.00
2012,10,02,00,37,11.00
2012,10,02,00,38,11.00
2012,10,02,00,39,10.90
2012,10,02,00,40,10.90
2012,10,02,00,41,10.90
2012,10,02,00,42,10.90
2012,10,02,00,43,10.90
2012,10,02,00,44,10.80
2012,10,02,00,45,10.80
2012,10,02,00,46,10.80
2012,10,02,00,47,10.80
2012,10,02,00,48,10.80
2012,10,02,00,49,10.80
2012,10,02,00,50,10.70
2012,10,02,00,51,10.70
2012,10,02,00,52,10.70
2012,10,02,00,53,10.70
2012,10,02,00,54,10.60
2012,10,02,00,55,10.60
2012,10,02,00,56,10.60
2012,10,02,00,57,10.60
2012,10,02,00,58,10.60
2012,10,02,00,59,10.50
2012,10,02,01,00,10.50
2012,10,02,01,01,10.50
2012,10,02,01,02,10.60
2012,10,02,01,03,10.60
2012,10,02,01,04,10.60
2012,10,02,01,05,10.50
2012,10,02,01,06,10.50
2012,10,02,01,07,10.50
2012,10,02,01,08,10.50
2012,10,02,01,09,10.50
2012,10,02,01,10,10.50
2012,10,02,01,11,10.50
2012,10,02,01,12,10.50
2012,10,02,01,13,10.50
2012,10,02,01,14,10.40
2012,10,02,01,15,10.40
2012,10,02,01,16,10.40
2012,10,02,01,17,10.40
2012,10,02,01,18,10.40
2012,10,02,01,19,10.40
2012,10,02,01,20,10.40
2012,10,02,01,21,10.30
2012,10,02,01,22,10.30
2012,10,02,01,23,10.30
2012,10,02,01,24,10.30
2012,10,02,01,25,10.30
2012,10,02,01,26,10.30
2012,10,02,01,27,10.30
2012,10,02,01,28,10.30
2012,10,02,01,29,10.30
2012,10,02,01,30,10.30
2012,10,02,01,31,10.20
2012,10,02,01,32,10.20
2012,10,02,01,33,10.20
2012,10,02,01,34,10.20
2012,10,02,01,35,10.20
2012,10,02,01,36,10.20
2012,10,02,01,37,10.20
2012,10,02,01,38,10.20
2012,10,02,01,39,10.10
2012,10,02,01,40,10.10
2012,10,02,01,41,10.10
2012,10,02,01,42,10.10
2012,10,02,01,43,10.00
2012,10,02,01,44,10.00
2012,10,02,01,45,10.00
2012,10,02,01,46,9.90
2012,10,02,01,47,9.90
2012,10,02,01,48,9.90
2012,10,02,01,49,9.90
2012,10,02,01,50,9.80
2012,10,02,01,51,9.80
2012,10,02,01,52,9.80
2012,10,02,01,53,9.70
2012,10,02,01,54,9.70
2012,10,02,01,55,9.70
2012,10,02,01,56,9.70
2012,10,02,01,57,9.70
2012,10,02,01,58,9.60
2012,10,02,01,59,9.60
2012,10,02,02,00,9.60
2012,10,02,02,01,9.60
2012,10,02,02,02,9.60
2012,10,02,02,03,9.60
2012,10,02,02,04,9.50
2012,10,02,02,05,9.50
2012,10,02,02,06,9.50
2012,10,02,02,07,9.40
2012,10,02,02,08,9.40
2012,10,02,02,09,9.40
2012,10,02,02,10,9.40
2012,10,02,02,11,9.40
2012,10,02,02,12,9.30
2012,10,02,02,13,9.30
2012,10,02,02,14,9.30
2012,10,02,02,15,9.30
2012,10,02,02,16,9.30
2012,10,02,02,17,9.30
2012,10,02,02,18,9.30
2012,10,02,02,19,9.30
2012,10,02,02,20,9.30
2012,10,02,02,21,9.30
2012,10,02,02,22,9.30
2012,10,02,02,23,9.30
2012,10,02,02,24,9.30
2012,10,02,02,25,9.30
2012,10,02,02,26,9.30
2012,10,02,02,27,9.30
2012,10,02,02,28,9.30
2012,10,02,02,29,9.30
2012,10,02,02,30,9.30
2012,10,02,02,31,9.30
2012,10,02,02,32,9.30
2012,10,02,02,33,9.30
2012,10,02,02,34,9.30
2012,10,02,02,35,9.30
2012,10,02,02,36,9.30
2012,10,02,02,37,9.20
2012,10,02,02,38,9.20
2012,10,02,02,39,9.20
2012,10,02,02,40,9.20
2012,10,02,02,41,9.10
2012,10,02,02,42,9.10
2012,10,02,02,43,9.10
2012,10,02,02,44,9.10
2012,10,02,02,45,9.10
2012,10,02,02,46,9.10
2012,10,02,02,47,9.10
2012,10,02,02,48,9.00
2012,10,02,02,49,9.00
2012,10,02,02,50,9.10
2012,10,02,02,51,9.10
2012,10,02,02,52,9.10
2012,10,02,02,53,9.10
2012,10,02,02,54,9.10
2012,10,02,02,55,9.10
2012,10,02,02,56,9.10
2012,10,02,02,57,9.20
2012,10,02,02,58,9.20
2012,10,02,02,59,9.20
2012,10,02,03,00,9.20
2012,10,02,03,01,9.10
2012,10,02,03,02,9.10
2012,10,02,03,03,9.10
2012,10,02,03,04,9.10
2012,10,02,03,05,9.00
2012,10,02,03,06,9.00
2012,10,02,03,07,8.90
2012,10,02,03,08,8.90
2012,10,02,03,09,8.90
2012,10,02,03,10,8.90
2012,10,02,03,11,8.90
2012,10,02,03,12,8.90
2012,10,02,03,13,8.90
2012,10,02,03,14,8.80
2012,10,02,03,15,8.80
2012,10,02,03,16,8.80
2012,10,02,03,17,8.80
2012,10,02,03,18,8.80
2012,10,02,03,19,8.80
2012,10,02,03,20,8.80
2012,10,02,03,21,8.80
2012,10,02,03,22,8.80
2012,10,02,03,23,8.80
2012,10,02,03,24,8.80
2012,10,02,03,25,8.80
2012,10,02,03,26,8.70
2012,10,02,03,27,8.70
2012,10,02,03,28,8.70
2012,10,02,03,29,8.70
2012,10,02,03,30,8.80
2012,10,02,03,31,8.80
2012,10,02,03,32,8.90
2012,10,02,03,33,9.00
2012,10,02,03,34,9.10
2012,10,02,03,35,9.20
2012,10,02,03,36,9.30
2012,10,02,03,37,9.30
2012,10,02,03,38,9.30
2012,10,02,03,39,9.30
2012,10,02,03,40,9.40
2012,10,02,03,41,9.40
2012,10,02,03,42,9.40
2012,10,02,03,43,9.50
2012,10,02,03,44,9.50
2012,10,02,03,49,7.50
2012,10,02,03,50,7.50
2012,10,02,03,51,7.50
2012,10,02,03,52,7.50
2012,10,02,03,53,7.40
2012,10,02,03,54,7.40
2012,10,02,03,55,7.40
2012,10,02,03,56,7.40
2012,10,02,03,57,7.40
2012,10,02,03,58,7.40
2012,10,02,03,59,7.40
2012,10,02,04,00,7.30
2012,10,02,04,01,7.30
2012,10,02,04,02,7.30
2012,10,02,04,03,7.30
2012,10,02,04,04,7.30
2012,10,02,04,05,7.30
2012,10,02,04,06,7.30
2012,10,02,04,07,7.20
2012,10,02,04,08,7.20
2012,10,02,04,09,7.20
2012,10,02,04,10,7.10
2012,10,02,04,11,7.10
2012,10,02,04,12,7.00
2012,10,02,04,13,6.90
2012,10,02,04,14,6.90
2012,10,02,04,15,6.80
2012,10,02,04,16,6.80
2012,10,02,04,17,6.70
2012,10,02,04,18,6.70
2012,10,02,04,19,6.70
2012,10,02,04,20,6.60
2012,10,02,04,21,6.60
2012,10,02,04,22,6.60
2012,10,02,04,23,6.60
2012,10,02,04,24,6.50
2012,10,02,04,25,6.50
2012,10,02,04,26,6.50
2012,10,02,04,27,6.50
2012,10,02,04,28,6.60
2012,10,02,04,29,6.60
2012,10,02,04,30,6.60
2012,10,02,04,31,6.60
2012,10,02,04,32,6.60
2012,10,02,04,33,6.60
2012,10,02,04,34,6.60
2012,10,02,04,35,6.60
2012,10,02,04,36,6.60
2012,10,02,04,37,6.70
2012,10,02,04,38,6.60
2012,10,02,04,39,6.60
2012,10,02,04,40,6.60
2012,10,02,04,41,6.60
2012,10,02,04,42,6.60
2012,10,02,04,43,6.60
2012,10,02,04,44,6.60
2012,10,02,04,45,6.60
2012,10,02,04,46,6.50
2012,10,02,04,47,6.50
2012,10,02,04,48,6.50
2012,10,02,04,49,6.40
2012,10,02,04,50,6.40
2012,10,02,04,51,6.40
2012,10,02,04,52,6.40
2012,10,02,04,53,6.30
2012,10,02,04,54,6.30
2012,10,02,04,55,6.30
2012,10,02,04,56,6.30
2012,10,02,04,57,6.30
2012,10,02,04,58,6.30
2012,10,02,04,59,6.30
2012,10,02,05,00,6.30
2012,10,02,05,01,6.30
2012,10,02,05,02,6.40
2012,10,02,05,03,6.40
2012,10,02,05,04,6.40
2012,10,02,05,05,6.40
2012,10,02,05,06,6.40
2012,10,02,05,07,6.40
2012,10,02,05,08,6.40
2012,10,02,05,09,6.40
2012,10,02,05,10,6.40
2012,10,02,05,11,6.40
2012,10,02,05,12,6.40
2012,10,02,05,13,6.40
2012,10,02,05,14,6.40
2012,10,02,05,15,6.40
2012,10,02,05,16,6.30
2012,10,02,05,17,6.30
2012,10,02,05,18,6.30
2012,10,02,05,19,6.30
2012,10,02,05,20,6.30
2012,10,02,05,21,6.30
2012,10,02,05,22,6.30
2012,10,02,05,23,6.30
2012,10,02,05,24,6.30
2012,10,02,05,25,6.30
2012,10,02,05,26,6.30
2012,10,02,05,27,6.30
2012,10,02,05,28,6.30
2012,10,02,05,29,6.30
2012,10,02,05,30,6.30
2012,10,02,05,31,6.20
2012,10,02,05,32,6.20
2012,10,02,05,33,6.20
2012,10,02,05,34,6.20
2012,10,02,05,35,6.20
2012,10,02,05,36,6.20
2012,10,02,05,37,6.20
2012,10,02,05,38,6.20
2012,10,02,05,39,6.20
2012,10,02,05,40,6.20
2012,10,02,05,41,6.20
2012,10,02,05,42,6.20
2012,10,02,05,43,6.20
2012,10,02,05,44,6.20
2012,10,02,05,45,6.20
2012,10,02,05,46,6.10
2012,10,02,05,47,6.10
2012,10,02,05,48,6.10
2012,10,02,05,49,6.10
2012,10,02,05,50,6.10
2012,10,02,05,51,6.10
2012,10,02,05,52,6.00
2012,10,02,05,53,6.00
2012,10,02,05,54,5.90
2012,10,02,05,55,5.90
2012,10,02,05,56,5.90
2012,10,02,05,57,5.80
2012,10,02,05,58,5.80
2012,10,02,05,59,5.80
2012,10,02,06,00,5.70
2012,10,02,06,01,5.70
2012,10,02,06,02,5.70
2012,10,02,06,03,5.70
2012,10,02,06,04,5.70
2012,10,02,06,05,5.60
2012,10,02,06,06,5.60
2012,10,02,06,07,5.60
2012,10,02,06,08,5.60
2012,10,02,06,09,5.60
2012,10,02,06,10,5.60
2012,10,02,06,11,5.60
2012,10,02,06,12,5.60
2012,10,02,06,13,5.60
2012,10,02,06,14,5.60
2012,10,02,06,15,5.60
2012,10,02,06,16,5.60
2012,10,02,06,17,5.60
2012,10,02,06,18,5.60
2012,10,02,06,19,5.60
2012,10,02,06,20,5.60
2012,10,02,06,21,5.60
2012,10,02,06,22,5.60
2012,10,02,06,23,5.60
2012,10,02,06,24,5.60
2012,10,02,06,25,5.60
2012,10,02,06,26,5.60
2012,10,02,06,27,5.60
2012,10,02,06,28,5.60
2012,10,02,06,29,5.60
2012,10,02,06,30,5.60
2012,10,02,06,31,5.60
2012,10,02,06,32,5.60
2012,10,02,06,33,5.60
2012,10,02,06,34,5.60
2012,10,02,06,35,5.60
2012,10,02,06,36,5.60
2012,10,02,06,37,5.60
2012,10,02,06,38,5.50
2012,10,02,06,39,5.50
2012,10,02,06,40,5.50
2012,10,02,06,41,5.50
2012,10,02,06,42,5.40
2012,10,02,06,43,5.40
2012,10,02,06,44,5.40
2012,10,02,06,45,5.40
2012,10,02,06,46,5.40
2012,10,02,06,47,5.40
2012,10,02,06,48,5.40
2012,10,02,06,49,5.40
2012,10,02,06,50,5.40
2012,10,02,06,51,5.40
2012,10,02,06,52,5.40
2012,10,02,06,53,5.40
2012,10,02,06,54,5.40
2012,10,02,06,55,5.40
2012,10,02,06,56,5.40
2012,10,02,06,57,5.50
2012,10,02,06,58,5.40
2012,10,02,06,59,5.50
2012,10,02,07,00,5.50
2012,10,02,07,01,5.40
2012,10,02,07,02,5.40
2012,10,02,07,03,5.40
2012,10,02,07,04,5.40
2012,10,02,07,05,5.40
2012,10,02,07,06,5.40
2012,10,02,07,07,5.40
2012,10,02,07,08,5.30
2012,10,02,07,09,5.30
2012,10,02,07,10,5.30
2012,10,02,07,11,5.30
2012,10,02,07,12,5.30
2012,10,02,07,13,5.30
2012,10,02,07,14,5.30
2012,10,02,07,15,5.20
2012,10,02,07,16,5.20
2012,10,02,07,17,5.20
2012,10,02,07,18,5.20
2012,10,02,07,19,5.20
2012,10,02,07,20,5.10
2012,10,02,07,21,5.10
2012,10,02,07,22,5.10
2012,10,02,07,23,5.10
2012,10,02,07,24,5.10
2012,10,02,07,25,5.10
2012,10,02,07,26,5.10
2012,10,02,07,27,5.10
2012,10,02,07,28,5.10
2012,10,02,07,29,5.10
2012,10,02,07,30,5.10
2012,10,02,07,31,5.10
2012,10,02,07,32,5.10
2012,10,02,07,33,5.10
2012,10,02,07,34,5.10
2012,10,02,07,35,5.10
2012,10,02,07,36,5.10
2012,10,02,07,37,5.10
2012,10,02,07,38,5.10
2012,10,02,07,39,5.10
2012,10,02,07,40,5.20
2012,10,02,07,41,5.20
2012,10,02,07,42,5.20
2012,10,02,07,43,5.20
2012,10,02,07,44,5.20
2012,10,02,07,45,5.20
2012,10,02,07,46,5.10
2012,10,02,07,47,5.10
2012,10,02,07,48,5.10
2012,10,02,07,49,5.10
2012,10,02,07,50,5.10
2012,10,02,07,51,5.20
2012,10,02,07,52,5.20
2012,10,02,07,53,5.20
2012,10,02,07,54,5.20
2012,10,02,07,55,5.20
2012,10,02,07,56,5.20
2012,10,02,07,57,5.20
2012,10,02,07,58,5.30
2012,10,02,07,59,5.30
2012,10,02,08,00,5.30
2012,10,02,08,01,5.30
2012,10,02,08,02,5.30
2012,10,02,08,03,5.30
2012,10,02,08,04,5.30
2012,10,02,08,05,5.40
2012,10,02,08,06,5.40
2012,10,02,08,07,5.40
2012,10,02,08,08,5.40
2012,10,02,08,09,5.40
2012,10,02,08,10,5.50
2012,10,02,08,11,5.50
2012,10,02,08,12,5.50
2012,10,02,08,13,5.60
2012,10,02,08,14,5.60
2012,10,02,08,15,5.60
2012,10,02,08,16,5.60
2012,10,02,08,17,5.70
2012,10,02,08,18,5.70
2012,10,02,08,19,5.70
2012,10,02,08,20,5.70
2012,10,02,08,21,5.80
2012,10,02,08,22,5.80
2012,10,02,08,23,5.80
2012,10,02,08,24,5.90
2012,10,02,08,25,5.90
2012,10,02,08,26,6.00
2012,10,02,08,27,6.10
2012,10,02,08,28,6.10
2012,10,02,08,29,6.20
2012,10,02,08,30,6.20
2012,10,02,08,31,6.20
2012,10,02,08,32,6.20
2012,10,02,08,33,6.30
2012,10,02,08,34,6.30
2012,10,02,08,35,6.30
2012,10,02,08,36,6.30
2012,10,02,08,37,6.30
2012,10,02,08,38,6.40
2012,10,02,08,39,6.40
2012,10,02,08,40,6.40
2012,10,02,08,41,6.50
2012,10,02,08,42,6.50
2012,10,02,08,43,6.50
2012,10,02,08,44,6.50
2012,10,02,08,45,6.50
2012,10,02,08,46,6.60
2012,10,02,08,47,6.60
2012,10,02,08,48,6.60
2012,10,02,08,49,6.70
2012,10,02,08,50,6.70
2012,10,02,08,51,6.80
2012,10,02,08,52,6.80
2012,10,02,08,53,6.90
2012,10,02,08,54,7.00
2012,10,02,08,55,7.10
2012,10,02,08,56,7.20
2012,10,02,08,57,7.20
2012,10,02,08,58,7.20
2012,10,02,08,59,7.30
2012,10,02,09,00,7.30
2012,10,02,09,01,7.30
2012,10,02,09,02,7.30
2012,10,02,09,03,7.30
2012,10,02,09,04,7.40
2012,10,02,09,05,7.40
2012,10,02,09,06,7.50
2012,10,02,09,07,7.60
2012,10,02,09,08,7.70
2012,10,02,09,09,7.80
2012,10,02,09,10,7.90
2012,10,02,09,11,8.00
2012,10,02,09,12,8.10
2012,10,02,09,13,8.20
2012,10,02,09,14,8.30
2012,10,02,09,15,8.40
2012,10,02,09,16,8.60
2012,10,02,09,17,8.70
2012,10,02,09,18,8.90
2012,10,02,09,19,9.10
2012,10,02,09,20,9.30
2012,10,02,09,21,9.50
2012,10,02,09,22,9.70
2012,10,02,09,23,9.90
2012,10,02,09,24,10.00
2012,10,02,09,25,10.20
2012,10,02,09,26,10.40
2012,10,02,09,27,10.50
2012,10,02,09,28,10.60
2012,10,02,09,29,10.80
2012,10,02,09,30,10.90
2012,10,02,09,31,11.10
2012,10,02,09,32,11.20
2012,10,02,09,33,11.30
2012,10,02,09,34,11.40
2012,10,02,09,35,11.50
2012,10,02,09,36,11.70
2012,10,02,09,37,11.80
2012,10,02,09,38,11.80
2012,10,02,09,39,11.90
2012,10,02,09,40,11.90
2012,10,02,09,41,11.90
2012,10,02,09,42,11.90
2012,10,02,09,43,11.90
2012,10,02,09,44,11.90
2012,10,02,09,45,11.90
2012,10,02,09,46,11.90
2012,10,02,09,47,11.90
2012,10,02,09,48,11.80
2012,10,02,09,49,11.80
2012,10,02,09,50,11.80
2012,10,02,09,51,11.70
2012,10,02,09,52,11.70
2012,10,02,09,53,11.70
2012,10,02,09,54,11.80
2012,10,02,09,55,11.80
2012,10,02,09,56,11.80
2012,10,02,09,57,11.80
2012,10,02,09,58,11.90
2012,10,02,09,59,11.90
2012,10,02,10,00,11.90
2012,10,02,10,01,11.90
2012,10,02,10,02,11.90
2012,10,02,10,03,11.90
2012,10,02,10,04,11.90
2012,10,02,10,05,12.00
2012,10,02,10,06,12.00
2012,10,02,10,07,12.00
2012,10,02,10,08,12.00
2012,10,02,10,09,12.00
2012,10,02,10,10,12.10
2012,10,02,10,11,12.10
2012,10,02,10,12,12.10
2012,10,02,10,13,12.20
2012,10,02,10,14,12.20
2012,10,02,10,15,12.20
2012,10,02,10,16,12.20
2012,10,02,10,17,12.20
2012,10,02,10,18,12.30
2012,10,02,10,19,12.30
2012,10,02,10,20,12.30
2012,10,02,10,21,12.40
2012,10,02,10,22,12.40
2012,10,02,10,23,12.50
2012,10,02,10,24,12.60
2012,10,02,10,25,12.70
2012,10,02,10,26,12.80
2012,10,02,10,27,12.90
2012,10,02,10,28,13.00
2012,10,02,10,29,13.10
2012,10,02,10,30,13.20
2012,10,02,10,31,13.30
2012,10,02,10,32,13.30
2012,10,02,10,33,13.30
2012,10,02,10,34,13.40
2012,10,02,10,35,13.40
2012,10,02,10,36,13.40
2012,10,02,10,37,13.40
2012,10,02,10,38,13.20
2012,10,02,10,39,13.10
2012,10,02,10,40,13.00
2012,10,02,10,41,12.90
2012,10,02,10,42,12.80
2012,10,02,10,43,12.80
2012,10,02,10,44,12.80
2012,10,02,10,45,12.80
2012,10,02,10,46,12.80
2012,10,02,10,47,12.80
2012,10,02,10,48,12.90
2012,10,02,10,49,12.90
2012,10,02,10,50,13.00
2012,10,02,10,51,13.00
2012,10,02,10,52,13.00
2012,10,02,10,53,13.00
2012,10,02,10,54,12.90
2012,10,02,10,55,12.90
2012,10,02,10,56,12.90
2012,10,02,10,57,12.90
2012,10,02,10,58,12.90
2012,10,02,10,59,12.90
2012,10,02,11,00,12.90
2012,10,02,11,01,13.00
2012,10,02,11,02,13.20
2012,10,02,11,03,13.30
2012,10,02,11,04,13.20
2012,10,02,11,05,13.20
2012,10,02,11,06,13.10
2012,10,02,11,07,13.00
2012,10,02,11,08,12.90
2012,10,02,11,09,12.70
2012,10,02,11,10,12.70
2012,10,02,11,11,12.60
2012,10,02,11,12,12.50
2012,10,02,11,13,12.40
2012,10,02,11,14,12.40
2012,10,02,11,15,12.40
2012,10,02,11,16,12.40
2012,10,02,11,17,12.50
2012,10,02,11,18,12.60
2012,10,02,11,19,12.70
2012,10,02,11,20,12.80
2012,10,02,11,21,12.90
2012,10,02,11,22,12.90
2012,10,02,11,23,13.00
2012,10,02,11,24,13.00
2012,10,02,11,25,13.00
2012,10,02,11,26,13.10
2012,10,02,11,27,13.10
2012,10,02,11,28,13.10
2012,10,02,11,29,13.10
2012,10,02,11,30,13.10
2012,10,02,11,31,13.10
2012,10,02,11,32,13.10
2012,10,02,11,33,13.00
2012,10,02,11,34,13.00
2012,10,02,11,35,12.90
2012,10,02,11,36,12.90
2012,10,02,11,37,12.90
2012,10,02,11,38,12.90
2012,10,02,11,39,13.00
2012,10,02,11,40,13.00
2012,10,02,11,41,13.10
2012,10,02,11,42,13.10
2012,10,02,11,43,13.20
2012,10,02,11,44,13.20
2012,10,02,11,45,13.20
2012,10,02,11,46,13.10
2012,10,02,11,47,13.10
2012,10,02,11,48,13.10
2012,10,02,11,49,13.10
2012,10,02,11,50,13.10
2012,10,02,11,51,13.20
2012,10,02,11,52,13.30
2012,10,02,11,53,13.30
2012,10,02,11,54,13.30
2012,10,02,11,55,13.40
2012,10,02,11,56,13.40
2012,10,02,11,57,13.30
2012,10,02,11,58,13.30
2012,10,02,11,59,13.30
2012,10,02,12,00,13.20
2012,10,02,12,01,13.20
2012,10,02,12,02,13.20
2012,10,02,12,03,13.10
2012,10,02,12,04,13.10
2012,10,02,12,05,13.10
2012,10,02,12,06,13.10
2012,10,02,12,07,13.10
2012,10,02,12,08,13.20
2012,10,02,12,09,13.30
2012,10,02,12,10,13.40
2012,10,02,12,11,13.50
2012,10,02,12,12,13.50
2012,10,02,12,13,13.60
2012,10,02,12,14,13.70
2012,10,02,12,15,13.80
2012,10,02,12,16,14.00
2012,10,02,12,17,14.10
2012,10,02,12,18,14.20
2012,10,02,12,19,14.30
2012,10,02,12,20,14.30
2012,10,02,12,21,14.40
2012,10,02,12,22,14.50
2012,10,02,12,23,14.60
2012,10,02,12,24,14.60
2012,10,02,12,25,14.60
2012,10,02,12,26,14.40
2012,10,02,12,27,14.40
2012,10,02,12,28,14.30
2012,10,02,12,29,14.20
2012,10,02,12,30,14.20
2012,10,02,12,31,14.20
2012,10,02,12,32,14.00
2012,10,02,12,33,13.90
2012,10,02,12,34,13.90
2012,10,02,12,35,13.80
2012,10,02,12,36,13.90
2012,10,02,12,37,13.90
2012,10,02,12,38,14.00
2012,10,02,12,39,14.20
2012,10,02,12,40,14.20
2012,10,02,12,41,14.30
2012,10,02,12,42,14.30
2012,10,02,12,43,14.20
2012,10,02,12,44,14.20
2012,10,02,12,45,14.20
2012,10,02,12,46,14.30
2012,10,02,12,47,14.40
2012,10,02,12,48,14.40
2012,10,02,12,49,14.40
2012,10,02,12,50,14.40
2012,10,02,12,51,14.60
2012,10,02,12,52,14.70
2012,10,02,12,53,14.90
2012,10,02,12,54,15.00
2012,10,02,12,55,15.00
2012,10,02,12,56,15.00
2012,10,02,12,57,15.00
2012,10,02,12,58,15.10
2012,10,02,12,59,15.00
2012,10,02,13,00,15.00
2012,10,02,13,01,15.00
2012,10,02,13,02,15.00
2012,10,02,13,03,15.00
2012,10,02,13,04,15.00
2012,10,02,13,05,15.00
2012,10,02,13,06,15.00
2012,10,02,13,07,15.00
2012,10,02,13,08,15.00
2012,10,02,13,09,15.00
2012,10,02,13,10,15.00
2012,10,02,13,11,15.10
2012,10,02,13,12,15.20
2012,10,02,13,13,15.10
2012,10,02,13,14,15.20
2012,10,02,13,15,15.20
2012,10,02,13,16,15.30
2012,10,02,13,17,15.40
2012,10,02,13,18,15.50
2012,10,02,13,19,15.60
2012,10,02,13,20,15.60
2012,10,02,13,21,15.50
2012,10,02,13,22,15.40
2012,10,02,13,23,15.30
2012,10,02,13,24,15.30
2012,10,02,13,25,15.30
2012,10,02,13,26,15.40
2012,10,02,13,27,15.40
2012,10,02,13,28,15.50
2012,10,02,13,29,15.60
2012,10,02,13,30,15.60
2012,10,02,13,31,15.60
2012,10,02,13,32,15.70
2012,10,02,13,33,15.70
2012,10,02,13,34,15.70
2012,10,02,13,35,15.60
2012,10,02,13,36,15.50
2012,10,02,13,37,15.50
2012,10,02,13,38,15.40
2012,10,02,13,39,15.40
2012,10,02,13,40,15.40
2012,10,02,13,41,15.40
2012,10,02,13,42,15.40
2012,10,02,13,43,15.40
2012,10,02,13,44,15.40
2012,10,02,13,45,15.40
2012,10,02,13,46,15.40
2012,10,02,13,47,15.40
2012,10,02,13,48,15.40
2012,10,02,13,49,15.50
2012,10,02,13,50,15.40
2012,10,02,13,51,15.30
2012,10,02,13,52,15.30
2012,10,02,13,53,15.40
2012,10,02,13,54,15.50
2012,10,02,13,55,15.60
2012,10,02,13,56,15.50
2012,10,02,13,57,15.50
2012,10,02,13,58,15.50
2012,10,02,13,59,15.60
2012,10,02,14,00,15.40
2012,10,02,14,01,15.30
2012,10,02,14,02,15.30
2012,10,02,14,03,15.30
2012,10,02,14,04,15.30
2012,10,02,14,05,15.30
2012,10,02,14,06,15.40
2012,10,02,14,07,15.50
2012,10,02,14,08,15.60
2012,10,02,14,09,15.60
2012,10,02,14,10,15.70
2012,10,02,14,11,15.80
2012,10,02,14,12,15.80
2012,10,02,14,13,15.80
2012,10,02,14,14,15.80
2012,10,02,14,15,15.80
2012,10,02,14,16,15.80
2012,10,02,14,17,15.80
2012,10,02,14,18,15.80
2012,10,02,14,19,15.90
2012,10,02,14,20,16.00
2012,10,02,14,21,16.00
2012,10,02,14,22,16.10
2012,10,02,14,23,16.10
2012,10,02,14,24,16.20
2012,10,02,14,25,16.20
2012,10,02,14,26,16.20
2012,10,02,14,27,16.10
2012,10,02,14,28,16.10
2012,10,02,14,29,16.10
2012,10,02,14,30,16.10
2012,10,02,14,31,16.10
2012,10,02,14,32,16.10
2012,10,02,14,33,16.00
2012,10,02,14,34,16.00
2012,10,02,14,35,16.10
2012,10,02,14,36,16.10
2012,10,02,14,37,16.20
2012,10,02,14,38,16.10
2012,10,02,14,39,16.10
2012,10,02,14,40,16.10
2012,10,02,14,41,16.10
2012,10,02,14,42,16.10
2012,10,02,14,43,16.10
2012,10,02,14,44,16.20
2012,10,02,14,45,16.20
2012,10,02,14,46,16.20
2012,10,02,14,47,16.20
2012,10,02,14,48,16.20
2012,10,02,14,49,16.10
2012,10,02,14,50,16.10
2012,10,02,14,51,16.20
2012,10,02,14,52,16.30
2012,10,02,14,53,16.30
2012,10,02,14,54,16.30
2012,10,02,14,55,16.30
2012,10,02,14,56,16.30
2012,10,02,14,57,16.30
2012,10,02,14,58,16.10
2012,10,02,14,59,16.10
2012,10,02,15,00,16.10
2012,10,02,15,01,16.10
2012,10,02,15,02,16.10
2012,10,02,15,03,16.10
2012,10,02,15,04,16.20
2012,10,02,15,05,16.20
2012,10,02,15,06,16.30
2012,10,02,15,07,16.30
2012,10,02,15,08,16.30
2012,10,02,15,09,16.20
2012,10,02,15,10,16.20
2012,10,02,15,11,16.10
2012,10,02,15,12,16.00
2012,10,02,15,13,15.80
2012,10,02,15,14,15.70
2012,10,02,15,15,15.60
2012,10,02,15,16,15.60
2012,10,02,15,17,15.60
2012,10,02,15,18,15.60
2012,10,02,15,19,15.60
2012,10,02,15,20,15.70
2012,10,02,15,21,15.80
2012,10,02,15,22,15.80
2012,10,02,15,23,15.90
2012,10,02,15,24,15.90
2012,10,02,15,25,15.90
2012,10,02,15,26,15.80
2012,10,02,15,27,15.80
2012,10,02,15,28,15.80
2012,10,02,15,29,15.70
2012,10,02,15,30,15.70
2012,10,02,15,31,15.70
2012,10,02,15,32,15.50
2012,10,02,15,33,15.50
2012,10,02,15,34,15.40
2012,10,02,15,35,15.30
2012,10,02,15,36,15.30
2012,10,02,15,37,15.20
2012,10,02,15,38,15.20
2012,10,02,15,39,15.10
2012,10,02,15,40,15.00
2012,10,02,15,41,15.00
2012,10,02,15,42,15.00
2012,10,02,15,43,15.00
2012,10,02,15,44,14.90
2012,10,02,15,45,15.00
2012,10,02,15,46,15.00
2012,10,02,15,47,15.00
2012,10,02,15,48,15.10
2012,10,02,15,49,15.20
2012,10,02,15,50,15.30
2012,10,02,15,51,15.40
2012,10,02,15,52,15.50
2012,10,02,15,53,15.60
2012,10,02,15,54,15.60
2012,10,02,15,55,15.70
2012,10,02,15,56,15.70
2012,10,02,15,57,15.70
2012,10,02,15,58,15.80
2012,10,02,15,59,15.80
2012,10,02,16,00,15.80
2012,10,02,16,01,15.80
2012,10,02,16,02,15.90
2012,10,02,16,03,15.90
2012,10,02,16,04,15.90
2012,10,02,16,05,15.90
2012,10,02,16,06,15.90
2012,10,02,16,07,15.90
2012,10,02,16,08,15.90
2012,10,02,16,09,15.90
2012,10,02,16,10,15.90
2012,10,02,16,11,16.00
2012,10,02,16,12,16.00
2012,10,02,16,13,16.00
2012,10,02,16,14,16.10
2012,10,02,16,15,16.10
2012,10,02,16,16,16.10
2012,10,02,16,17,16.10
2012,10,02,16,18,16.10
2012,10,02,16,19,16.00
2012,10,02,16,20,16.10
2012,10,02,16,21,16.10
2012,10,02,16,22,16.10
2012,10,02,16,23,16.10
2012,10,02,16,24,16.10
2012,10,02,16,25,16.10
2012,10,02,16,26,16.10
2012,10,02,16,27,16.10
2012,10,02,16,28,16.10
2012,10,02,16,29,16.20
2012,10,02,16,30,16.20
2012,10,02,16,31,16.20
2012,10,02,16,32,16.20
2012,10,02,16,33,16.20
2012,10,02,16,34,16.20
2012,10,02,16,35,16.20
2012,10,02,16,36,16.20
2012,10,02,16,37,16.20
2012,10,02,16,38,16.00
2012,10,02,16,39,15.90
2012,10,02,16,40,15.80
2012,10,02,16,41,15.80
2012,10,02,16,42,15.80
2012,10,02,16,43,15.80
2012,10,02,16,44,15.80
2012,10,02,16,45,15.70
2012,10,02,16,46,15.70
2012,10,02,16,47,15.70
2012,10,02,16,48,15.70
2012,10,02,16,49,15.70
2012,10,02,16,50,15.70
2012,10,02,16,51,15.70
2012,10,02,16,52,15.60
2012,10,02,16,53,15.50
2012,10,02,16,54,15.40
2012,10,02,16,55,15.40
2012,10,02,16,56,15.30
2012,10,02,16,57,15.30
2012,10,02,16,58,15.30
2012,10,02,16,59,15.30
2012,10,02,17,00,15.30
2012,10,02,17,01,15.30
2012,10,02,17,02,15.30
2012,10,02,17,03,15.30
2012,10,02,17,04,15.30
2012,10,02,17,05,15.30
2012,10,02,17,06,15.20
2012,10,02,17,07,15.20
2012,10,02,17,08,15.10
2012,10,02,17,09,15.10
2012,10,02,17,10,15.10
2012,10,02,17,11,15.00
2012,10,02,17,12,15.00
2012,10,02,17,13,15.00
2012,10,02,17,14,15.00
2012,10,02,17,15,15.00
2012,10,02,17,16,15.00
2012,10,02,17,17,15.00
2012,10,02,17,18,15.00
2012,10,02,17,19,15.00
2012,10,02,17,20,15.00
2012,10,02,17,21,15.00
2012,10,02,17,22,15.00
2012,10,02,17,23,15.00
2012,10,02,17,24,15.00
2012,10,02,17,25,15.00
2012,10,02,17,26,15.00
2012,10,02,17,27,15.00
2012,10,02,17,28,15.00
2012,10,02,17,29,15.00
2012,10,02,17,30,15.00
2012,10,02,17,31,14.90
2012,10,02,17,32,14.90
2012,10,02,17,33,14.90
2012,10,02,17,34,14.80
2012,10,02,17,35,14.80
2012,10,02,17,36,14.80
2012,10,02,17,37,14.80
2012,10,02,17,38,14.70
2012,10,02,17,39,14.70
2012,10,02,17,40,14.70
2012,10,02,17,41,14.70
2012,10,02,17,42,14.70
2012,10,02,17,43,14.70